Terminal Aerodrome Forecast
Issued by NWS

Home | Current Version | Previous Version | Text Only | Print | Product List | Glossary On
Versions: 1 2 3 4 5 6 7 8 9 10 11 12
000
FTUS42 TJSJ 290500
TAFNCM
TAF
TNCM 290530Z 2906/3006 11013KT P6SM VCSH SCT018 SCT040
     FM291800 11010KT P6SM FEW020=

USA.gov is the U.S. government's official web portal to all federal, state and local government web resources and services.